CW5078 Weather Reports


Display with metric or nautical units.
time (UTC)temp
F
wind
direction
speed
MPH
gust
MPH
rain 1hr
in
rain 24hr
in
rain mn
in
humidity
%
barometer
mb
20181017030807 51 338 1.0 2.0 0.15 0.54 2.01 95 1021.8
20181017030306 51 100 0.0 1.0 0.15 0.53 2.00 95 1021.7
20181017025809 51 106 1.0 3.0 0.16 0.53 2.00 95 1021.7
20181017025307 51 54 0.0 3.0 0.16 0.52 1.99 95 1021.7
20181017024807 51 165 0.0 0.0 0.17 0.52 1.99 95 1021.8
20181017024307 51 197 0.0 1.0 0.18 0.51 1.98 95 1021.7
20181017023807 51 269 0.0 2.0 0.19 0.51 1.98 95 1021.9
20181017023307 51 302 0.0 1.0 0.19 0.50 1.97 95 1021.7
20181017022807 51 330 1.0 3.0 0.18 0.49 1.96 95 1021.8
20181017022307 51 299 1.0 3.0 0.17 0.47 1.94 95 1021.9
20181017021307 51 314 1.0 5.0 0.12 0.41 1.88 95 1021.6
20181017015307 51 348 2.0 5.0 0.08 0.36 1.83 95 1021.8
20181017014808 51 336 1.0 2.0 0.07 0.35 1.82 95 1021.7
20181017012808 52 349 3.0 6.0 0.03 0.31 1.78 95 1021.8
20181017012307 52 354 3.0 8.0 0.02 0.30 1.77 95 1021.7
20181017011807 52 347 3.0 6.0 0.02 0.30 1.77 95 1021.6
20181017011307 52 337 2.0 6.0 0.02 0.29 1.76 95 1021.5
20181017010307 52 328 1.0 3.0 0.02 0.29 1.76 95 1021.5
20181017005807 52 340 1.0 6.0 0.01 0.28 1.75 95 1021.4
20181017004807 52 329 2.0 8.0 0.02 0.28 1.75 95 1021.3
20181017004307 52 350 3.0 12.0 0.02 0.28 1.75 95 1021.2
20181017003309 52 350 4.0 15.0 0.02 0.28 1.75 95 1021.1
20181017002308 52 341 5.0 12.0 0.03 0.28 1.75 95 1021.2
20181017001808 53 341 3.0 10.0 0.03 0.28 1.75 95 1021.1
20181017000807 53 337 3.0 12.0 0.02 0.27 1.74 95 1021.1
20181017000307 53 325 3.0 9.0 0.02 0.27 1.74 95 1021.0
20181016235807 53 352 4.0 9.0 0.03 0.27 1.74 95 1020.9
20181016235307 53 346 4.0 8.0 0.02 0.26 1.73 95 1021.0
20181016234807 53 341 3.0 5.0 0.02 0.26 1.73 95 1021.0
20181016234307 53 346 1.0 6.0 0.02 0.26 1.73 95 1021.1
20181016233807 53 338 3.0 6.0 0.02 0.26 1.73 95 1021.0
20181016233307 53 326 2.0 5.0 0.03 0.26 1.73 95 1021.0
20181016232807 53 337 1.0 6.0 0.02 0.25 1.72 95 1020.9
20181016231807 53 333 2.0 5.0 0.04 0.25 1.72 95 1020.6
20181016230808 53 348 2.0 8.0 0.05 0.25 1.72 95 1020.6
20181016230307 53 330 1.0 3.0 0.05 0.25 1.72 95 1020.6
20181016223807 53 336 1.0 9.0 0.04 0.24 1.71 95 1020.2
20181016223308 53 320 3.0 7.0 0.03 0.23 1.70 95 1020.1
20181016222808 53 332 2.0 3.0 0.03 0.23 1.70 95 1020.0
20181016221807 53 330 0.0 3.0 0.02 0.21 1.68 95 1020.2
20181016221307 53 330 0.0 0.0 0.02 0.21 1.68 95 1020.1
20181016220807 53 330 0.0 3.0 0.01 0.20 1.67 95 1020.0
20181016220307 53 329 0.0 5.0 0.01 0.20 1.67 95 1019.8
20181016215808 53 333 0.0 1.0 0.01 0.20 1.67 95 1019.7
20181016215308 53 333 0.0 3.0 0.02 0.20 1.67 95 1019.6
20181016214808 53 324 2.0 5.0 0.02 0.20 1.67 95 1019.9
20181016214308 53 11 1.0 3.0 0.02 0.20 1.67 95 1019.5
20181016213309 53 236 0.0 1.0 0.02 0.20 1.67 95 1019.1
20181016212807 53 246 0.0 2.0 0.02 0.20 1.67 95 1019.1
20181016212307 53 233 0.0 1.0 0.01 0.19 1.66 95 1019.1
20181016211808 53 233 0.0 0.0 0.01 0.19 1.66 95 1019.0
20181016210308 53 212 0.0 0.0 0.01 0.19 1.66 95 1019.0
20181016205308 53 209 0.0 1.0 0.00 0.18 1.65 95 1019.2
20181016204808 52 214 0.0 2.0 0.00 0.18 1.65 95 1019.1
20181016204307 52 115 0.0 3.0 0.00 0.18 1.65 95 1019.2
20181016203807 52 61 0.0 2.0 0.00 0.18 1.65 95 1019.2
20181016203308 52 99 0.0 1.0 0.00 0.18 1.65 95 1019.1
20181016202808 52 97 1.0 3.0 0.00 0.18 1.65 95 1018.9
20181016202307 52 140 0.0 1.0 0.00 0.18 1.65 95 1018.8
20181016201807 52 141 1.0 3.0 0.00 0.18 1.65 95 1019.1
20181016201307 52 104 1.0 6.0 0.00 0.18 1.65 95 1019.1
20181016200808 52 344 2.0 5.0 0.00 0.18 1.65 95 1019.3
20181016200307 52 346 2.0 5.0 0.00 0.18 1.65 95 1019.3
20181016195808 52 329 1.0 3.0 0.00 0.18 1.65 95 1019.3
20181016194808 52 325 1.0 5.0 0.02 0.18 1.65 96 1019.3
20181016194307 52 69 0.0 3.0 0.03 0.18 1.65 96 1019.4
20181016193308 51 128 0.0 2.0 0.07 0.18 1.65 96 1019.4
20181016192808 51 129 1.0 3.0 0.09 0.18 1.65 95 1019.4
20181016191808 50 333 0.0 2.0 0.12 0.18 1.65 96 1019.7
20181016191308 50 332 2.0 12.0 0.14 0.18 1.65 96 1019.8
20181016190807 51 345 2.0 8.0 0.16 0.18 1.65 96 1020.0
20181016190308 51 314 0.0 3.0 0.18 0.18 1.65 96 1020.1
20181016185808 50 108 0.0 2.0 0.18 0.18 1.65 96 1020.1
20181016185308 50 331 0.0 5.0 0.18 0.17 1.64 95 1020.3
20181016184808 49 331 1.0 5.0 0.17 0.16 1.63 95 1020.4
20181016184308 49 56 3.0 6.0 0.17 0.15 1.62 95 1020.3
20181016183808 49 336 0.0 2.0 0.15 0.12 1.59 95 1020.5
20181016183308 49 324 1.0 6.0 0.15 0.11 1.58 95 1020.8
20181016182808 49 337 3.0 8.0 0.15 0.09 1.56 95 1021.0
20181016181808 49 327 0.0 3.0 0.16 0.06 1.53 95 1021.0
20181016153808 49 341 3.0 8.0 0.22 0.79 0.85 95 1022.4
20181016153308 49 0 0.0 1.0 0.17 0.74 0.80 95 1022.6
20181016152807 49 348 4.0 10.0 0.14 0.70 0.76 95 1022.5
20181016152308 49 320 1.0 6.0 0.12 0.67 0.73 95 1023.4
20181016151808 49 0 3.0 8.0 0.12 0.65 0.71 95 1023.2
20181016151308 49 314 5.0 10.0 0.11 0.63 0.69 95 1022.6
20181016150808 49 314 1.0 3.0 0.09 0.60 0.66 95 1022.3
20181016150308 49 267 2.0 3.0 0.09 0.59 0.65 95 1021.7
20181016145308 49 79 0.0 2.0 0.08 0.58 0.64 95 1021.2
20181016144808 49 42 1.0 8.0 0.08 0.57 0.63 95 1021.2
20181016143808 49 163 0.0 0.0 0.08 0.57 0.63 95 1021.5
20181016143308 49 163 0.0 1.0 0.08 0.57 0.63 95 1021.5
20181016142808 49 159 0.0 2.0 0.07 0.56 0.62 95 1021.6
20181016064800 52 43 2.0 6.0 0.11 0.53 0.14 95 1020.3
20181016064259 52 333 2.0 3.0 0.10 0.52 0.13 95 1020.4
20181016063300 53 336 2.0 8.0 0.08 0.50 0.11 95 1020.4
20181016062800 53 324 1.0 3.0 0.07 0.48 0.09 95 1020.3
20181016062259 53 90 1.0 3.0 0.08 0.48 0.09 95 1020.3
20181016061800 53 211 0.0 3.0 0.07 0.47 0.08 95 1020.5
20181016060300 53 344 0.0 0.0 0.05 0.44 0.05 95 1020.9
20181016055800 53 344 0.0 3.0 0.04 0.42 0.03 95 1021.0
20181016055300 53 344 1.0 3.0 0.04 0.42 0.03 95 1021.1
20181016054759 53 344 0.0 5.0 0.04 0.42 0.03 95 1021.1
20181016054259 53 17 1.0 3.0 0.04 0.42 0.03 95 1020.9
20181016053759 53 342 1.0 3.0 0.04 0.42 0.03 95 1020.7
20181016051759 53 68 0.0 2.0 0.03 0.40 0.01 95 1020.8
20181016050259 53 118 2.0 3.0 0.03 0.39 0.00 95 1020.7
20181016045759 53 109 1.0 5.0 0.03 0.39 0.39 95 1020.8
20181016045259 53 108 1.0 2.0 0.02 0.38 0.38 95 1020.9
20181016043759 53 119 1.0 3.0 0.04 0.38 0.38 95 1021.3
20181016043300 53 205 1.0 3.0 0.04 0.38 0.38 95 1020.9
20181016042759 53 200 1.0 3.0 0.05 0.38 0.38 95 1020.7
20181016042300 53 329 1.0 3.0 0.06 0.37 0.37 95 1020.9
20181016041800 53 53 1.0 3.0 0.07 0.37 0.37 95 1020.8
20181016040259 53 4 1.0 2.0 0.12 0.36 0.36 95 1021.2
20181016033759 54 336 4.0 9.0 0.14 0.34 0.34 95 1021.4